Find Local Weather

World > North America > United States > Indiana

Greensburg, Indiana Regional Weather

Lat: 39.34N, Lon: 85.48W
Wx Zone: INZ065
Warning FLW WEATHER ALERT - (More Info. Click Here) Warning
Feedback

Greensburg, IN Regional Weather

Expires:201902172100;;090092
ASUS43 KIND 172009
RWRIN 

WEATHER ROUNDUP FOR INDIANA
NATIONAL WEATHER SERVICE INDIANAPOLIS IN
300 PM EST SUN FEB 17 2019

NOTE: "FAIR" INDICATES FEW OR NO CLOUDS BELOW 12,000 FEET WITH NO
SIGNIFICANT WEATHER AND/OR OBSTRUCTIONS TO VISIBILITY.

* - STATION DOES NOT REPORT WEATHER SUCH AS PRECIPITATION OR FOG.

+ - STATION NOT QUALITY CONTROLLED BY THE NATIONAL WEATHER SERVICE.
    USE DATA WITH CAUTION...ESPECIALLY DEWPOINT AND RELATIVE
    HUMIDITY OBSERVATIONS.


INZ030>032-037>040-046>048-054>057-064-065-172100-
CENTRAL INDIANA
  
CITY           SKY/WX    TMP DP  RH WIND       PRES   REMARKS
COLUMBUS       FRZ DRZL  30  27  86 CALM      29.75F                  
FISHERS *+     CLOUDY    28  28 100 E3        29.75F                  
FRANKFORT +    CLOUDY    31  28  88 E14       29.75F FOG     WCI  20  
GREENWOOD *+   CLOUDY    29  27  90 E5        29.74F WCI  24          
INDIANAPOLIS   FRZ DRZL  30  28  92 E3        29.74F FOG              
-EAGLE CREEK   CLOUDY    30  27  88 E5        29.74F FOG     WCI  25  
KOKOMO +       CLOUDY    27  27 100 E12       29.76F FOG     WCI  17  
MARION +       CLOUDY   N/A N/A N/A E9        29.76S                  
MT COMFORT *+  CLOUDY    28  28 100 E6        29.74F WCI  22          
SHELBYVILLE    CLOUDY    30  28  92 NE3       29.73F FOG              
ZIONSVILLE +   CLOUDY    28  27  96 E7        29.75S WCI  21          

$$


SKY/WX - Weather  TMP - Temperature  DP - Dew Point  RH - Relative Humidity
WIND - Wind Direction/Speed PRES - Barometric Pressure VSB - Visibility
WCI - Wind Chill Index E13G22 Wind - East Wind 13 mph/Gusts of 22 mph